Location: Limerick
(52.6800°N, 8.6400°W)
Time: 03:53:01
(UTC+01:00)

ISS - All Passes

Search period start: 05 May 2016 00:00
Search period end: 15 May 2016 00:00
Orbit: 402 x 405 km, 51.6° (Epoch: 04 May)

Date Brightness Start Highest point End Pass type
(mag) Time Alt. Az. Time Alt. Az. Time Alt. Az.
05 May - 07:34:47 10° S 07:36:40 15° SE 07:38:34 10° ESE daylight
05 May - 09:09:26 10° SW 09:12:36 47° SSE 09:15:45 10° E daylight
05 May - 10:45:38 10° W 10:48:55 76° S 10:52:11 10° E daylight
05 May - 12:22:05 10° W 12:25:13 44° SSW 12:28:21 10° SE daylight
05 May - 13:59:27 10° WSW 14:01:05 13° SW 14:02:43 10° S daylight
06 May - 08:17:09 10° SW 08:20:09 34° SSE 08:23:10 10° E daylight
06 May - 09:53:07 10° W 09:56:24 73° S 09:59:40 10° E daylight
06 May - 11:29:32 10° W 11:32:46 57° SSW 11:35:58 10° ESE daylight
06 May - 13:06:20 10° W 13:08:47 20° SW 13:11:15 10° SSE daylight
07 May - 07:25:02 10° SSW 07:27:45 24° SSE 07:30:29 10° E daylight
07 May - 09:00:38 10° WSW 09:03:52 64° SSE 09:07:07 10° E daylight
07 May - 10:36:59 10° W 10:40:15 69° S 10:43:30 10° ESE daylight
07 May - 12:13:33 10° W 12:16:25 28° SSW 12:19:17 10° SSE daylight
08 May - 06:33:14 10° S 06:35:24 17° SE 06:37:35 10° ESE daylight
08 May - 08:08:10 10° WSW 08:11:22 51° SSE 08:14:34 10° E daylight
08 May - 09:44:26 10° W 09:47:43 75° S 09:50:58 10° E daylight
08 May - 11:20:54 10° W 11:23:59 39° SSW 11:27:04 10° SE daylight
08 May - 12:58:40 10° WSW 12:59:47 11° SW 13:00:54 10° SSW daylight
09 May - 05:42:17 10° SSE 05:43:06 11° SE 05:43:56 10° SE daylight
09 May - 07:15:49 10° SW 07:18:53 38° SSE 07:21:57 10° E daylight
09 May - 08:51:52 10° W 08:55:09 75° S 08:58:26 10° E daylight
09 May - 10:28:17 10° W 10:31:30 53° SSW 10:34:42 10° ESE daylight
09 May - 12:05:13 10° W 12:07:28 17° SW 12:09:44 10° S daylight
10 May - 06:23:36 10° SSW 06:26:25 27° SSE 06:29:16 10° E daylight
10 May - 07:59:20 10° WSW 08:02:35 67° S 08:05:51 10° E daylight
10 May - 09:35:42 10° W 09:38:57 65° S 09:42:12 10° ESE daylight
10 May - 11:12:19 10° W 11:15:05 25° SSW 11:17:51 10° SSE daylight
11 May - 05:31:38 10° SSW 05:34:01 19° SE 05:36:24 10° E daylight
11 May - 07:06:49 10° WSW 07:10:01 55° SSE 07:13:15 10° E daylight
11 May - 08:43:06 10° W 08:46:23 74° S 08:49:39 10° E daylight
11 May - 10:19:35 10° W 10:22:38 36° SSW 10:25:40 10° SE daylight
12 May - 04:40:12 10° SSE 04:41:39 12° SE 04:43:06 10° ESE visible
12 May - 06:14:22 10° SW 06:17:29 42° SSE 06:20:37 10° E daylight
12 May - 07:50:30 10° W 07:53:47 75° S 07:57:03 10° E daylight
12 May - 09:26:56 10° W 09:30:06 48° SSW 09:33:17 10° ESE daylight
12 May - 11:04:01 10° WSW 11:06:02 15° SW 11:08:02 10° S daylight
13 May - 05:22:03 10° SW 05:24:59 30° SSE 05:27:54 10° E daylight
13 May - 06:57:55 10° WSW 07:01:10 70° S 07:04:26 10° E daylight
13 May - 08:34:18 10° W 08:37:32 62° SSW 08:40:47 10° ESE daylight
13 May - 10:10:59 10° W 10:13:37 23° SSW 10:16:15 10° SSE daylight
14 May - 04:29:57 10° SSW 04:32:31 21° SSE 04:35:04 10° E visible
14 May - 06:05:20 10° WSW 06:08:34 59° SSE 06:11:48 10° E daylight
14 May - 07:41:39 10° W 07:44:56 72° S 07:48:12 10° ESE daylight
14 May - 09:18:10 10° W 09:21:08 32° SSW 09:24:06 10° SE daylight
